Location: La Silve
(44.2414°N, 5.8889°E)
Time: 17:59:09
(UTC+00:00)

OE (NEXTSAT) - Pass Details

Date: 01 December 2020
Orbit: 428 x 435 km, 46.0° (Epoch: 23 January)

Event Time Altitude Azimuth Distance (km) Brightness Sun altitude
Rises 16:51:32 0° 276° (W) 2,396 9.3 -9.3°
Reaches altitude 10° 16:53:40 10° 279° (W) 1,527 8.1 -9.7°
Maximum altitude 16:57:05 62° 1° (N) 486 4.4 -10.2°
Enters shadow 16:59:43 16° 81° (E) 1,213 5.9 -10.7°
